Météo par heure à Kitee

Ce jour, 8 Mars, Lundi

Heure Température Précipitation Vent Pression Humidité
00:00 -15°C° 0 mm 4 m/s 744 mmHg 89%
01:00 -16°C° 0 mm 4 m/s 745 mmHg 90%
02:00 -17°C° 0 mm 4 m/s 746 mmHg 90%
03:00 -18°C° 0 mm 4 m/s 746 mmHg 91%
04:00 -19°C° 0 mm 4 m/s 747 mmHg 91%
05:00 -19°C° 0 mm 3 m/s 747 mmHg 91%
06:00 -19°C° 0 mm 3 m/s 748 mmHg 91%
07:00 -21°C° 0 mm 3 m/s 749 mmHg 91%
08:00 -21°C° 0 mm 3 m/s 749 mmHg 91%
09:00 -19°C° 0 mm 3 m/s 750 mmHg 90%
10:00 -18°C° 0 mm 3 m/s 750 mmHg 89%
11:00 -17°C° 0 mm 3 m/s 751 mmHg 87%
12:00 -17°C° 0 mm 3 m/s 751 mmHg 86%
13:00 -16°C° 0 mm 3 m/s 751 mmHg 86%
14:00 -15°C° 0 mm 3 m/s 751 mmHg 85%
15:00 -16°C° 0 mm 3 m/s 752 mmHg 87%
16:00 -15°C° 0 mm 2 m/s 752 mmHg 89%
17:00 -16°C° 0 mm 2 m/s 752 mmHg 90%
18:00 -17°C° 0 mm 2 m/s 752 mmHg 92%
19:00 -19°C° 0 mm 2 m/s 753 mmHg 93%
20:00 -20°C° 0 mm 2 m/s 753 mmHg 94%
21:00 -19°C° 0 mm 1 m/s 754 mmHg 94%
22:00 -20°C° 0 mm 1 m/s 754 mmHg 95%
23:00 -20°C° 0 mm 1 m/s 754 mmHg 95%

Demain, 9 Mars, Mardi

Heure Température Précipitation Vent Pression Humidité
00:00 -21°C° 0 mm 1 m/s 755 mmHg 94%
01:00 -22°C° 0 mm 1 m/s 755 mmHg 94%
02:00 -23°C° 0 mm 1 m/s 755 mmHg 94%
03:00 -23°C° 0 mm 1 m/s 755 mmHg 93%
04:00 -24°C° 0 mm 1 m/s 755 mmHg 93%
05:00 -27°C° 0 mm 2 m/s 756 mmHg 92%
06:00 -27°C° 0 mm 2 m/s 756 mmHg 92%
07:00 -27°C° 0 mm 2 m/s 757 mmHg 91%
08:00 -27°C° 0 mm 2 m/s 757 mmHg 90%
09:00 -25°C° 0 mm 2 m/s 757 mmHg 88%
10:00 -24°C° 0 mm 2 m/s 758 mmHg 85%
11:00 -21°C° 0 mm 2 m/s 758 mmHg 82%
12:00 -20°C° 0 mm 2 m/s 758 mmHg 81%
13:00 -19°C° 0 mm 2 m/s 759 mmHg 81%
14:00 -17°C° 0 mm 2 m/s 759 mmHg 80%
15:00 -18°C° 0 mm 2 m/s 759 mmHg 83%
16:00 -16°C° 0 mm 1 m/s 759 mmHg 86%
17:00 -17°C° 0 mm 1 m/s 759 mmHg 89%
18:00 -18°C° 0 mm 1 m/s 760 mmHg 90%
19:00 -20°C° 0 mm 1 m/s 760 mmHg 90%
20:00 -24°C° 0 mm 2 m/s 761 mmHg 91%
21:00 -21°C° 0 mm 1 m/s 761 mmHg 90%
22:00 -22°C° 0 mm 1 m/s 761 mmHg 89%
23:00 -22°C° 0 mm 1 m/s 761 mmHg 89%

Après-demain, 10 Mars, Mercredi

Heure Température Précipitation Vent Pression Humidité
00:00 -23°C° 0 mm 1 m/s 761 mmHg 87%
01:00 -23°C° 0 mm 1 m/s 762 mmHg 86%
02:00 -23°C° 0 mm 1 m/s 762 mmHg 85%
03:00 -23°C° 0 mm 1 m/s 762 mmHg 84%
04:00 -23°C° 0 mm 1 m/s 762 mmHg 83%
05:00 -23°C° 0 mm 1 m/s 762 mmHg 82%
06:00 -22°C° 0 mm 1 m/s 762 mmHg 81%
07:00 -21°C° 0 mm 1 m/s 763 mmHg 80%
08:00 -20°C° 0 mm 0 m/s 763 mmHg 80%
09:00 -18°C° 0 mm 0 m/s 763 mmHg 76%
10:00 -16°C° 0 mm 0 m/s 763 mmHg 72%
11:00 -14°C° 0 mm 0 m/s 763 mmHg 69%
12:00 -13°C° 0 mm 0 m/s 763 mmHg 68%
13:00 -12°C° 0 mm 0 m/s 763 mmHg 68%
14:00 -11°C° 0 mm 1 m/s 763 mmHg 68%
15:00 -12°C° 0 mm 0 m/s 763 mmHg 72%
16:00 -13°C° 0 mm 0 m/s 762 mmHg 76%
17:00 -14°C° 0 mm 0 m/s 762 mmHg 81%
18:00 -15°C° 0 mm 0 m/s 762 mmHg 80%
19:00 -16°C° 0 mm 0 m/s 762 mmHg 80%
20:00 -18°C° 0 mm 0 m/s 762 mmHg 80%
21:00 -18°C° 0 mm 0 m/s 762 mmHg 79%
22:00 -18°C° 0 mm 1 m/s 762 mmHg 79%
23:00 -18°C° 0 mm 1 m/s 761 mmHg 79%

11 Mars, Jeudi

Heure Température Précipitation Vent Pression Humidité
00:00 -18°C° 0 mm 1 m/s 761 mmHg 80%
01:00 -18°C° 0 mm 1 m/s 761 mmHg 82%
02:00 -18°C° 0 mm 1 m/s 761 mmHg 83%
03:00 -20°C° 0 mm 2 m/s 760 mmHg 86%
04:00 -20°C° 0 mm 2 m/s 760 mmHg 89%
05:00 -21°C° 0 mm 2 m/s 760 mmHg 92%
06:00 -20°C° 0 mm 2 m/s 759 mmHg 93%
07:00 -21°C° 0 mm 3 m/s 759 mmHg 94%
08:00 -19°C° 0 mm 3 m/s 759 mmHg 95%
09:00 -17°C° 0 mm 3 m/s 758 mmHg 92%
10:00 -16°C° 0 mm 4 m/s 758 mmHg 89%
11:00 -14°C° 0 mm 4 m/s 757 mmHg 86%
12:00 -14°C° 0 mm 5 m/s 756 mmHg 83%
13:00 -13°C° 0 mm 5 m/s 756 mmHg 79%
14:00 -13°C° 0 mm 5 m/s 755 mmHg 76%
15:00 -13°C° 0 mm 5 m/s 754 mmHg 80%
16:00 -14°C° 0 mm 4 m/s 754 mmHg 84%
17:00 -14°C° 0 mm 4 m/s 753 mmHg 87%
18:00 -14°C° 0 mm 4 m/s 753 mmHg 89%
19:00 -14°C° 0 mm 4 m/s 752 mmHg 91%
20:00 -14°C° 0 mm 4 m/s 752 mmHg 93%
21:00 -14°C° 0 mm 4 m/s 751 mmHg 94%
22:00 -14°C° 0 mm 4 m/s 751 mmHg 94%
23:00 -14°C° 0 mm 4 m/s 750 mmHg 94%

12 Mars, Vendredi

Heure Température Précipitation Vent Pression Humidité
00:00 -14°C° 0 mm 4 m/s 750 mmHg 94%
01:00 -14°C° 0 mm 4 m/s 750 mmHg 94%
02:00 -14°C° 0 mm 4 m/s 749 mmHg 94%
03:00 -12°C° 0 mm 4 m/s 748 mmHg 93%
04:00 -12°C° 0 mm 4 m/s 748 mmHg 93%
05:00 -13°C° 0 mm 5 m/s 747 mmHg 92%
06:00 -14°C° 0 mm 5 m/s 747 mmHg 92%
07:00 -14°C° 0 mm 5 m/s 747 mmHg 91%
08:00 -15°C° 0 mm 5 m/s 746 mmHg 91%
09:00 -14°C° 0 mm 5 m/s 746 mmHg 90%
10:00 -14°C° 0 mm 6 m/s 745 mmHg 88%
11:00 -14°C° 0 mm 6 m/s 745 mmHg 87%
12:00 -12°C° 0 mm 6 m/s 744 mmHg 85%
13:00 -11°C° 0 mm 6 m/s 744 mmHg 83%
14:00 -10°C° 0 mm 5 m/s 743 mmHg 81%
15:00 -10°C° 0 mm 5 m/s 743 mmHg 84%
16:00 -11°C° 0 mm 5 m/s 743 mmHg 86%
17:00 -11°C° 0 mm 5 m/s 742 mmHg 88%
18:00 -11°C° 0.1 mm 5 m/s 742 mmHg 89%
19:00 -11°C° 0.1 mm 5 m/s 742 mmHg 91%
20:00 -11°C° 0.1 mm 4 m/s 742 mmHg 92%
21:00 -11°C° 0.1 mm 4 m/s 742 mmHg 92%
22:00 -11°C° 0.1 mm 4 m/s 742 mmHg 92%
23:00 -12°C° 0.1 mm 4 m/s 742 mmHg 92%

13 Mars, Samedi

Heure Température Précipitation Vent Pression Humidité
00:00 -12°C° 0 mm 4 m/s 741 mmHg 92%
01:00 -12°C° 0 mm 4 m/s 741 mmHg 91%
02:00 -12°C° 0 mm 4 m/s 741 mmHg 91%
03:00 -12°C° 0.1 mm 4 m/s 740 mmHg 92%
04:00 -12°C° 0.1 mm 4 m/s 740 mmHg 92%
05:00 -12°C° 0.1 mm 4 m/s 740 mmHg 92%
06:00 -12°C° 0.1 mm 4 m/s 740 mmHg 92%
07:00 -12°C° 0.1 mm 4 m/s 740 mmHg 91%
08:00 -12°C° 0.1 mm 4 m/s 740 mmHg 91%
09:00 -11°C° 0.1 mm 4 m/s 740 mmHg 91%
10:00 -10°C° 0.1 mm 4 m/s 740 mmHg 91%
11:00 -9°C° 0.1 mm 4 m/s 740 mmHg 91%
12:00 -9°C° 0.2 mm 4 m/s 740 mmHg 91%
13:00 -8°C° 0.2 mm 4 m/s 740 mmHg 92%
14:00 -8°C° 0.2 mm 4 m/s 740 mmHg 92%
15:00 -7°C° 0.2 mm 3 m/s 740 mmHg 93%
16:00 -6°C° 0.2 mm 3 m/s 740 mmHg 94%
17:00 -6°C° 0.2 mm 3 m/s 740 mmHg 95%
18:00 -6°C° 0.2 mm 3 m/s 740 mmHg 95%
19:00 -5°C° 0.2 mm 3 m/s 740 mmHg 96%
20:00 -4°C° 0.2 mm 2 m/s 740 mmHg 96%
21:00 -5°C° 0.2 mm 3 m/s 740 mmHg 97%
22:00 -4°C° 0.2 mm 3 m/s 741 mmHg 97%
23:00 -2°C° 0.2 mm 3 m/s 741 mmHg 97%
Voir plus

Nous avons besoin de votre consentement

Meteoprog et ses fournisseurs de services peuvent stocker et accéder à des données personnelles telles que des cookies, des identifiants d'appareils ou d'autres technologies similaires sur votre appareil et traiter ces données pour personnaliser le contenu et les publicités, ainsi que pour fournir des fonctionnalités de médias sociaux et analyser le trafic.

  • Stocker et/ou accéder à des informations sur votre appareil

    Des cookies, des identifiants d'appareils ou d'autres informations peuvent être stockés ou accessibles sur votre appareil aux fins indiquées ci-dessus.

  • Annonces et contenus personnalisés, mesure des annonces et des contenus, connaissance de l'audience et développement de produits

    Les annonces et le contenu peuvent être personnalisés en fonction d'un profil. D'autres données peuvent être ajoutées pour mieux personnaliser les annonces et le contenu. Les performances des publicités et du contenu peuvent être mesurées. Il est possible d'obtenir des informations sur le public qui a vu les publicités et le contenu. Ces données peuvent être utilisées pour développer ou améliorer l'expérience de l'utilisateur, les systèmes et les logiciels.

En cliquant sur "J'accepte", vous autorisez l'utilisation de cookies, des identifiants d'appareils, des balises web ou d'autres technologies similaires. Vos paramètres peuvent être modifiés dans le navigateur de votre appareil.

Dans certains cas, des intérêts légitimes peuvent être invoqués plutôt qu'un consentement. Vous pouvez en savoir plus à ce sujet dans notre Politique de confidentialité et de cookies.